Location: Morisset
(33.1080°S, 151.4871°E)
Time: 12:09:17
(UTC+00:00)

BREEZE-M DEB (TANK) - Pass Details

Date: 29 October 2020
Orbit: 313 x 11710 km, 49.7° (Epoch: 23 November)

Event Time Altitude Azimuth Distance (km) Brightness Sun altitude
Exits shadow 18:01:40 - 324° (NW) 4,598 7.4 -11.6°
Reaches altitude 10° 18:03:11 10° 325° (NW) 3,943 7.1 -11.3°
Maximum altitude 18:10:47 50° 38° (NE) 874 4.4 -9.9°
Drops below altitude 10° 18:13:49 10° 116° (ESE) 1,584 7.4 -9.3°
Sets 18:15:16 0° 122° (ESE) 2,248 8.6 -9.0°
